This demonstration page uses our WeatherBlox Daily Observations layout. Learn more.

Left ArrowRight Arrow

Hourly Observations for November 28, 2018

Temp ( °F °C ) Dew Point ( °F °C ) Humidity (%) Winds ( mph kmh ) Pressure ( in mb ) Visibility ( mi km ) Precip ( " mm )
12:37 am 00:37 Cloudy 27 -3 25 -4 93 93 S 16 26 29.94 1014 10 16 0.00 0.00
12:57 am 00:57 Cloudy 26 -3.3 25 -3.9 96 96 S 15 24 29.89 1012 10 16 0.00 0.00
1:57 am 01:57 Mostly Cloudy 26 -3.3 24 -4.4 92 92 S 16 26 29.85 1011 10 16 0.00 0.00
2:57 am 02:57 Clear 25 -3.9 24 -4.4 96 96 S 17 28 29.82 1010 10 16 0.00 0.00
3:33 am 03:33 Mostly Clear 27 -3 25 -4 93 93 S 17 28 29.85 1011 10 16 0.00 0.00
3:57 am 03:57 Mostly Clear 27 -2.8 25 -3.9 92 92 S 17 28 29.79 1009 10 16 0.00 0.00
4:57 am 04:57 Clear 26 -3.3 24 -4.4 92 92 SSW 13 20 29.79 1009 10 16 0.00 0.00
5:25 am 05:25 Partly Cloudy 27 -3 25 -4 93 93 S 9 15 29.85 1011 10 16 0.00 0.00
5:35 am 05:35 Mostly Cloudy 27 -3 25 -4 93 93 S 10 17 29.83 1010 10 16 0.00 0.00
5:57 am 05:57 Mostly Cloudy 25 -3.9 24 -4.4 96 96 S 12 19 29.77 1008 10 16 0.00 0.00
6:57 am 06:57 Mostly Cloudy 26 -3.3 24 -4.4 92 92 S 12 19 29.78 1008 10 16 0.00 0.00
7:15 am 07:15 Mostly Clear 27 -3 25 -4 93 93 S 12 19 29.83 1010 10 16 0.00 0.00
7:57 am 07:57 Partly Cloudy 26 -3.3 24 -4.4 92 92 S 12 19 29.76 1008 10 16 0.00 0.00
8:57 am 08:57 Sunny 28 -2.2 26 -3.3 92 92 S 13 20 29.75 1007 10 16 0.00 0.00
9:57 am 09:57 Mostly Cloudy 31 -0.6 28 -2.2 89 89 SSW 17 28 29.73 1007 10 16 0.00 0.00
10:57 am 10:57 Mostly Sunny 36 2.2 30 -1.1 79 79 SW 15 24 29.71 1006 10 16 0.00 0.00
11:57 am 11:57 Mostly Sunny 40 4.4 33 0.6 77 77 SW 13 20 29.68 1005 10 16 0.00 0.00
12:57 pm 12:57 Sunny 46 7.8 34 1.1 63 63 W 10 17 29.67 1005 10 16 0.00 0.00
1:57 pm 13:57 Sunny 49 9.4 36 2.2 61 61 WNW 16 26 29.67 1005 10 16 0.00 0.00
2:57 pm 14:57 Mostly Cloudy 50 10 37 2.8 61 61 NNW 13 20 29.68 1005 10 16 0.00 0.00
3:57 pm 15:57 Sunny 50 10 37 2.8 61 61 NW 9 15 29.70 1006 10 16 0.00 0.00
4:57 pm 16:57 Mostly Cloudy 44 6.7 37 2.8 76 76 NW 5 7 29.71 1006 10 16 0.00 0.00
5:57 pm 17:57 Clear 43 6.1 36 2.2 76 76 WSW 6 9 29.74 1007 10 16 0.00 0.00
6:57 pm 18:57 Clear 42 5.6 36 2.2 79 79 WNW 6 9 29.75 1008 10 16 0.00 0.00
7:57 pm 19:57 Clear 43 6.1 37 2.8 80 80 W 7 11 29.75 1008 10 16 0.00 0.00
8:57 pm 20:57 Clear 40 4.4 36 2.2 86 86 W 7 11 29.74 1007 10 16 0.00 0.00
9:57 pm 21:57 Clear 38 3.3 34 1.1 86 86 WNW 7 11 29.75 1008 10 16 0.00 0.00
10:57 pm 22:57 Clear 35 1.7 32 0 89 89 WSW 3 6 29.76 1008 10 16 0.00 0.00
11:57 pm 23:57 Clear 36 2.2 35 1.7 97 97 W 5 7 29.77 1008 10 16 0.00 0.00

Powered by AerisWeather